Temperatures and Conditions from around the state of pennsylvania

NOAA NWS Hourly Roundups by Site

Regional Weather Roundup for State College, PA

To Select Another Site Choose from List

Select Site:  

000
ASUS41 KCTP 161910
RWRCTP

REGIONAL WEATHER ROUNDUP
NATIONAL WEATHER SERVICE STATE COLLEGE PA
300 PM EDT TUE OCT 16 2018

Note: "fair" indicates few or no clouds below 12,000 feet with no
significant weather and/or obstructions to visibility.

* = STATION THAT DOES NOT REPORT PRECIPITATION /E.G. RAIN...SNOW...ETC/
    THUNDER OR FOG.

PAZ002>004-007>009-013>016-020>023-029>032-162000-
WESTERN PENNSYLVANIA

CITY           SKY/WX    TMP DP  RH WIND       PRES   REMARKS
ERIE           FAIR      54  32  43 SW14G21   30.08F
MEADVILLE      FAIR      50  33  52 SW12      30.08F
FRANKLIN*      FAIR      49  30  48 SW15      30.09F
NEW CASTLE     FAIR      52  31  44 SW10      30.12F
BEAVER COUNTY  SUNNY     52  32  46 SW8G16    30.13F
BUTLER*        FAIR      50  33  52 SW12      30.12F
PITTSBURGH INT PTSUNNY   49  31  49 SW6       30.13F
PITTSBURGH     FAIR      50  31  48 W9        30.13F
INDIANA*       SUNNY     50  32  50 W9G18     30.15F
LATROBE        PTSUNNY   50  36  57 MISG      30.14F
WASHINGTON CO* FAIR      51  31  46 SW10G16   30.17F
$$

PAZ004>006-010>012-017>019-024>028-033>037-041-042-045-046-049>053-162000-
CENTRAL PENNSYLVANIA

CITY           SKY/WX    TMP DP  RH WIND       PRES   REMARKS
BRADFORD       FAIR      48  30  49 W10G18    30.05F
DUBOIS         FAIR      47  31  53 SW13      30.08F
CLEARFIELD     FAIR      50  31  48 SW13G21   30.10F
JOHNSTOWN      FAIR      48  31  51 W10       30.09F
ALTOONA        FAIR      53  36  52 SW7       30.11F
STATE COLLEGE  SUNNY     52  32  46 W14G20    30.10F
WILLIAMSPORT   FAIR      55  32  41 W8        30.08F
SELINSGROVE    FAIR      54  37  52 VRB6      30.11F
FT INDIANTOWN  PTSUNNY   53  33  46 W5        30.11F
CAPITAL CITY   FAIR      55  35  47 W10       30.13F
HARRISBURG     PTSUNNY   55  37  50 W7        30.11F
YORK           FAIR      55  35  47 W7        30.12F
$$

PAZ038>040-043-044-047-048-054-055-060>062-067>071-162000-
EASTERN PENNSYLVANIA

CITY           SKY/WX    TMP DP  RH WIND       PRES   REMARKS
SCRANTON       FAIR      50  32  50 VRB7      30.07F
MOUNT POCONO   FAIR      47  30  51 W13       30.06R
ALLENTOWN      FAIR      54  35  48 W9        30.09F
QUAKERTOWN*    CLEAR     54  34  47 SW7       30.10F
READING        FAIR      54  37  52 SW12      30.10F
LANCASTER      FAIR      53  36  52 W12       30.11F
COATESVILLE    FAIR      52  34  50 NW10G16   30.13F
POTTSTOWN      FAIR      52  33  48 SW7       30.13F
BLUE BELL      FAIR      54  36  50 NW3       30.12F
DOYLESTOWN     FAIR      54  33  45 VRB3      30.10F
WILLOW GROVE   NOT AVBL
NORTH PHILA    FAIR      58  35  42 W6        30.12F
PHILADELPHIA   PTSUNNY   56  34  43 S6        30.11F
$$


 

View Past Reports for State College, PA.

Products Courtesy of NOAA-NWS
NWS Information Parsing Script by Ken True at Saratoga Weather - Script by SE Lincoln Weather.